Time,TemperatureF,DewpointF,PressureIn,WindDirection,WindDirectionDegrees,WindSpeedMPH,WindSpeedGustMPH,Humidity,HourlyPrecipIn,Conditions,Clouds,dailyrainin,SoftwareType,DateUTC
2013-01-08 00:00:00,75.0,-99.9,30.10,ENE,70,13.0,15.0,-999,-99.99,,,-99.99,,2013-01-08 05:00:00,
2013-01-08 00:22:00,75.0,-99.9,30.10,ENE,70,13.0,15.0,-999,-99.99,,,-99.99,,2013-01-08 05:22:00,
2013-01-08 00:33:00,75.0,-99.9,30.10,ENE,70,13.0,15.0,-999,-99.99,,,-99.99,,2013-01-08 05:33:00,
2013-01-08 00:43:00,75.0,-99.9,30.10,ENE,70,13.0,15.0,-999,-99.99,,,-99.99,,2013-01-08 05:43:00,
2013-01-08 00:53:00,75.0,-99.9,30.10,ENE,70,13.0,15.0,-999,-99.99,,,-99.99,,2013-01-08 05:53:00,
2013-01-08 01:00:00,75.0,-99.9,30.08,ENE,70,13.0,14.0,-999,-99.99,,,-99.99,,2013-01-08 06:00:00,
2013-01-08 01:23:00,75.0,-99.9,30.08,ENE,70,13.0,14.0,-999,-99.99,,,-99.99,,2013-01-08 06:23:00,
2013-01-08 01:33:00,75.0,-99.9,30.08,ENE,70,13.0,14.0,-999,-99.99,,,-99.99,,2013-01-08 06:33:00,
2013-01-08 01:43:00,75.0,-99.9,30.08,ENE,70,13.0,14.0,-999,-99.99,,,-99.99,,2013-01-08 06:43:00,
2013-01-08 01:53:00,75.0,-99.9,30.08,ENE,70,13.0,14.0,-999,-99.99,,,-99.99,,2013-01-08 06:53:00,
2013-01-08 02:00:00,75.0,-99.9,30.07,ENE,70,13.0,14.0,-999,-99.99,,,-99.99,,2013-01-08 07:00:00,
2013-01-08 02:22:00,75.0,-99.9,30.07,ENE,70,13.0,14.0,-999,-99.99,,,-99.99,,2013-01-08 07:22:00,
2013-01-08 02:32:00,75.0,-99.9,30.07,ENE,70,13.0,14.0,-999,-99.99,,,-99.99,,2013-01-08 07:32:00,
2013-01-08 02:42:00,75.0,-99.9,30.07,ENE,70,13.0,14.0,-999,-99.99,,,-99.99,,2013-01-08 07:42:00,
2013-01-08 02:53:00,75.0,-99.9,30.07,ENE,70,13.0,14.0,-999,-99.99,,,-99.99,,2013-01-08 07:53:00,
2013-01-08 03:00:00,75.0,-99.9,30.06,ENE,70,10.0,11.0,-999,-99.99,,,-99.99,,2013-01-08 08:00:00,
2013-01-08 03:22:00,75.0,-99.9,30.06,ENE,70,10.0,11.0,-999,-99.99,,,-99.99,,2013-01-08 08:22:00,
2013-01-08 03:33:00,75.0,-99.9,30.06,ENE,70,10.0,11.0,-999,-99.99,,,-99.99,,2013-01-08 08:33:00,
2013-01-08 03:42:00,75.0,-99.9,30.06,ENE,70,10.0,11.0,-999,-99.99,,,-99.99,,2013-01-08 08:42:00,
2013-01-08 03:53:00,75.0,-99.9,30.06,ENE,70,10.0,11.0,-999,-99.99,,,-99.99,,2013-01-08 08:53:00,
2013-01-08 04:00:00,76.0,-99.9,30.06,ESE,110,15.0,16.0,-999,-99.99,,,-99.99,,2013-01-08 09:00:00,
2013-01-08 04:22:00,76.0,-99.9,30.06,ESE,110,15.0,16.0,-999,-99.99,,,-99.99,,2013-01-08 09:22:00,
2013-01-08 04:33:00,76.0,-99.9,30.06,ESE,110,15.0,16.0,-999,-99.99,,,-99.99,,2013-01-08 09:33:00,
2013-01-08 04:43:00,76.0,-99.9,30.06,ESE,110,15.0,16.0,-999,-99.99,,,-99.99,,2013-01-08 09:43:00,
2013-01-08 04:53:00,76.0,-99.9,30.06,ESE,110,15.0,16.0,-999,-99.99,,,-99.99,,2013-01-08 09:53:00,
2013-01-08 05:00:00,76.0,-99.9,30.07,SE,130,13.0,15.0,-999,-99.99,,,-99.99,,2013-01-08 10:00:00,
2013-01-08 05:22:00,76.0,-99.9,30.07,SE,130,13.0,15.0,-999,-99.99,,,-99.99,,2013-01-08 10:22:00,
2013-01-08 05:33:00,76.0,-99.9,30.07,SE,130,13.0,15.0,-999,-99.99,,,-99.99,,2013-01-08 10:33:00,
2013-01-08 05:43:00,76.0,-99.9,30.07,SE,130,13.0,15.0,-999,-99.99,,,-99.99,,2013-01-08 10:43:00,
2013-01-08 05:53:00,76.0,-99.9,30.07,SE,130,13.0,15.0,-999,-99.99,,,-99.99,,2013-01-08 10:53:00,
2013-01-08 06:00:00,76.0,-99.9,30.09,ESE,120,11.0,13.0,-999,-99.99,,,-99.99,,2013-01-08 11:00:00,
2013-01-08 06:23:00,76.0,-99.9,30.09,ESE,120,11.0,13.0,-999,-99.99,,,-99.99,,2013-01-08 11:23:00,
2013-01-08 06:33:00,76.0,-99.9,30.09,ESE,120,11.0,13.0,-999,-99.99,,,-99.99,,2013-01-08 11:33:00,
2013-01-08 06:53:00,76.0,-99.9,30.09,ESE,120,11.0,13.0,-999,-99.99,,,-99.99,,2013-01-08 11:53:00,
2013-01-08 07:00:00,76.0,-99.9,30.11,ESE,110,10.0,11.0,-999,-99.99,,,-99.99,,2013-01-08 12:00:00,
2013-01-08 07:22:00,76.0,-99.9,30.11,ESE,110,10.0,11.0,-999,-99.99,,,-99.99,,2013-01-08 12:22:00,
2013-01-08 07:33:00,76.0,-99.9,30.11,ESE,110,10.0,11.0,-999,-99.99,,,-99.99,,2013-01-08 12:33:00,
2013-01-08 07:43:00,76.0,-99.9,30.11,ESE,110,10.0,11.0,-999,-99.99,,,-99.99,,2013-01-08 12:43:00,
2013-01-08 07:53:00,76.0,-99.9,30.11,ESE,110,10.0,11.0,-999,-99.99,,,-99.99,,2013-01-08 12:53:00,
2013-01-08 08:00:00,76.0,-99.9,30.14,East,100,11.0,13.0,-999,-99.99,,,-99.99,,2013-01-08 13:00:00,
2013-01-08 08:22:00,76.0,-99.9,30.14,East,100,11.0,13.0,-999,-99.99,,,-99.99,,2013-01-08 13:22:00,
2013-01-08 08:33:00,76.0,-99.9,30.14,East,100,11.0,13.0,-999,-99.99,,,-99.99,,2013-01-08 13:33:00,
2013-01-08 08:43:00,76.0,-99.9,30.14,East,100,11.0,13.0,-999,-99.99,,,-99.99,,2013-01-08 13:43:00,
2013-01-08 08:53:00,76.0,-99.9,30.14,East,100,11.0,13.0,-999,-99.99,,,-99.99,,2013-01-08 13:53:00,
2013-01-08 09:00:00,77.0,-99.9,30.17,ESE,120,11.0,14.0,-999,-99.99,,,-99.99,,2013-01-08 14:00:00,
2013-01-08 09:23:00,77.0,-99.9,30.17,ESE,120,11.0,14.0,-999,-99.99,,,-99.99,,2013-01-08 14:23:00,
2013-01-08 09:33:00,77.0,-99.9,30.17,ESE,120,11.0,14.0,-999,-99.99,,,-99.99,,2013-01-08 14:33:00,
2013-01-08 09:43:00,77.0,-99.9,30.17,ESE,120,11.0,14.0,-999,-99.99,,,-99.99,,2013-01-08 14:43:00,
2013-01-08 09:53:00,77.0,-99.9,30.17,ESE,120,11.0,14.0,-999,-99.99,,,-99.99,,2013-01-08 14:53:00,
2013-01-08 10:00:00,76.0,-99.9,30.19,East,100,9.0,10.0,-999,-99.99,,,-99.99,,2013-01-08 15:00:00,
2013-01-08 10:23:00,76.0,-99.9,30.19,East,100,9.0,10.0,-999,-99.99,,,-99.99,,2013-01-08 15:23:00,
2013-01-08 10:33:00,76.0,-99.9,30.19,East,100,9.0,10.0,-999,-99.99,,,-99.99,,2013-01-08 15:33:00,
2013-01-08 10:43:00,76.0,-99.9,30.19,East,100,9.0,10.0,-999,-99.99,,,-99.99,,2013-01-08 15:43:00,
2013-01-08 10:53:00,76.0,-99.9,30.19,East,100,9.0,10.0,-999,-99.99,,,-99.99,,2013-01-08 15:53:00,
2013-01-08 11:00:00,76.0,-99.9,30.18,East,90,8.0,9.0,-999,-99.99,,,-99.99,,2013-01-08 16:00:00,
2013-01-08 11:23:00,76.0,-99.9,30.18,East,90,8.0,9.0,-999,-99.99,,,-99.99,,2013-01-08 16:23:00,
2013-01-08 11:34:00,76.0,-99.9,30.18,East,90,8.0,9.0,-999,-99.99,,,-99.99,,2013-01-08 16:34:00,
2013-01-08 11:43:00,76.0,-99.9,30.18,East,90,8.0,9.0,-999,-99.99,,,-99.99,,2013-01-08 16:43:00,
2013-01-08 11:53:00,76.0,-99.9,30.18,East,90,8.0,9.0,-999,-99.99,,,-99.99,,2013-01-08 16:53:00,
2013-01-08 12:00:00,76.0,-99.9,30.16,ESE,110,10.0,11.0,-999,-99.99,,,-99.99,,2013-01-08 17:00:00,
2013-01-08 12:23:00,76.0,-99.9,30.16,ESE,110,10.0,11.0,-999,-99.99,,,-99.99,,2013-01-08 17:23:00,
2013-01-08 12:34:00,76.0,-99.9,30.16,ESE,110,10.0,11.0,-999,-99.99,,,-99.99,,2013-01-08 17:34:00,
2013-01-08 12:43:00,76.0,-99.9,30.16,ESE,110,10.0,11.0,-999,-99.99,,,-99.99,,2013-01-08 17:43:00,
2013-01-08 12:54:00,76.0,-99.9,30.16,ESE,110,10.0,11.0,-999,-99.99,,,-99.99,,2013-01-08 17:54:00,
2013-01-08 13:00:00,76.0,-99.9,30.13,ESE,110,9.0,11.0,-999,-99.99,,,-99.99,,2013-01-08 18:00:00,
2013-01-08 13:24:00,76.0,-99.9,30.13,ESE,110,9.0,11.0,-999,-99.99,,,-99.99,,2013-01-08 18:24:00,
2013-01-08 13:34:00,76.0,-99.9,30.13,ESE,110,9.0,11.0,-999,-99.99,,,-99.99,,2013-01-08 18:34:00,
2013-01-08 13:43:00,76.0,-99.9,30.13,ESE,110,9.0,11.0,-999,-99.99,,,-99.99,,2013-01-08 18:43:00,
2013-01-08 13:53:00,76.0,-99.9,30.13,ESE,110,9.0,11.0,-999,-99.99,,,-99.99,,2013-01-08 18:53:00,
2013-01-08 14:00:00,77.0,-99.9,30.11,SE,140,14.0,15.0,-999,-99.99,,,-99.99,,2013-01-08 19:00:00,
2013-01-08 14:23:00,77.0,-99.9,30.11,SE,140,14.0,15.0,-999,-99.99,,,-99.99,,2013-01-08 19:23:00,
2013-01-08 14:33:00,77.0,-99.9,30.11,SE,140,14.0,15.0,-999,-99.99,,,-99.99,,2013-01-08 19:33:00,
2013-01-08 14:43:00,77.0,-99.9,30.11,SE,140,14.0,15.0,-999,-99.99,,,-99.99,,2013-01-08 19:43:00,
2013-01-08 14:53:00,77.0,-99.9,30.11,SE,140,14.0,15.0,-999,-99.99,,,-99.99,,2013-01-08 19:53:00,
2013-01-08 15:00:00,78.0,-99.9,30.10,SE,140,13.0,16.0,-999,-99.99,,,-99.99,,2013-01-08 20:00:00,
2013-01-08 15:23:00,78.0,-99.9,30.10,SE,140,13.0,16.0,-999,-99.99,,,-99.99,,2013-01-08 20:23:00,
2013-01-08 15:33:00,78.0,-99.9,30.10,SE,140,13.0,16.0,-999,-99.99,,,-99.99,,2013-01-08 20:33:00,
2013-01-08 15:43:00,78.0,-99.9,30.10,SE,140,13.0,16.0,-999,-99.99,,,-99.99,,2013-01-08 20:43:00,
2013-01-08 15:54:00,78.0,-99.9,30.10,SE,140,13.0,16.0,-999,-99.99,,,-99.99,,2013-01-08 20:54:00,
2013-01-08 16:00:00,78.0,-99.9,30.11,ESE,120,15.0,18.0,-999,-99.99,,,-99.99,,2013-01-08 21:00:00,
2013-01-08 16:23:00,78.0,-99.9,30.11,ESE,120,15.0,18.0,-999,-99.99,,,-99.99,,2013-01-08 21:23:00,
2013-01-08 16:34:00,78.0,-99.9,30.11,ESE,120,15.0,18.0,-999,-99.99,,,-99.99,,2013-01-08 21:34:00,
2013-01-08 16:43:00,78.0,-99.9,30.11,ESE,120,15.0,18.0,-999,-99.99,,,-99.99,,2013-01-08 21:43:00,
2013-01-08 16:53:00,78.0,-99.9,30.11,ESE,120,15.0,18.0,-999,-99.99,,,-99.99,,2013-01-08 21:53:00,
2013-01-08 17:00:00,77.0,-99.9,30.11,SE,130,16.0,18.0,-999,-99.99,,,-99.99,,2013-01-08 22:00:00,
2013-01-08 17:23:00,77.0,-99.9,30.11,SE,130,16.0,18.0,-999,-99.99,,,-99.99,,2013-01-08 22:23:00,
2013-01-08 17:33:00,77.0,-99.9,30.11,SE,130,16.0,18.0,-999,-99.99,,,-99.99,,2013-01-08 22:33:00,
2013-01-08 17:43:00,77.0,-99.9,30.11,SE,130,16.0,18.0,-999,-99.99,,,-99.99,,2013-01-08 22:43:00,
2013-01-08 17:53:00,77.0,-99.9,30.11,SE,130,16.0,18.0,-999,-99.99,,,-99.99,,2013-01-08 22:53:00,
2013-01-08 18:00:00,77.0,-99.9,30.12,ESE,120,16.0,18.0,-999,-99.99,,,-99.99,,2013-01-08 23:00:00,
2013-01-08 18:23:00,77.0,-99.9,30.12,ESE,120,16.0,18.0,-999,-99.99,,,-99.99,,2013-01-08 23:23:00,
2013-01-08 18:33:00,77.0,-99.9,30.12,ESE,120,16.0,18.0,-999,-99.99,,,-99.99,,2013-01-08 23:33:00,
2013-01-08 18:43:00,77.0,-99.9,30.12,ESE,120,16.0,18.0,-999,-99.99,,,-99.99,,2013-01-08 23:43:00,
2013-01-08 18:53:00,77.0,-99.9,30.12,ESE,120,16.0,18.0,-999,-99.99,,,-99.99,,2013-01-08 23:53:00,
2013-01-08 19:00:00,77.0,-99.9,30.13,ESE,120,15.0,16.0,-999,-99.99,,,-99.99,,2013-01-09 00:00:00,
2013-01-08 19:23:00,77.0,-99.9,30.13,ESE,120,15.0,16.0,-999,-99.99,,,-99.99,,2013-01-09 00:23:00,
2013-01-08 19:33:00,77.0,-99.9,30.13,ESE,120,15.0,16.0,-999,-99.99,,,-99.99,,2013-01-09 00:33:00,
2013-01-08 19:43:00,77.0,-99.9,30.13,ESE,120,15.0,16.0,-999,-99.99,,,-99.99,,2013-01-09 00:43:00,
2013-01-08 19:53:00,77.0,-99.9,30.13,ESE,120,15.0,16.0,-999,-99.99,,,-99.99,,2013-01-09 00:53:00,
2013-01-08 20:00:00,78.0,-99.9,30.14,ESE,110,15.0,17.0,-999,-99.99,,,-99.99,,2013-01-09 01:00:00,
2013-01-08 20:22:00,78.0,-99.9,30.14,ESE,110,15.0,17.0,-999,-99.99,,,-99.99,,2013-01-09 01:22:00,
2013-01-08 20:33:00,78.0,-99.9,30.14,ESE,110,15.0,17.0,-999,-99.99,,,-99.99,,2013-01-09 01:33:00,
2013-01-08 20:43:00,78.0,-99.9,30.14,ESE,110,15.0,17.0,-999,-99.99,,,-99.99,,2013-01-09 01:43:00,
2013-01-08 20:53:00,78.0,-99.9,30.14,ESE,110,15.0,17.0,-999,-99.99,,,-99.99,,2013-01-09 01:53:00,
2013-01-08 21:00:00,77.0,-99.9,30.14,ESE,120,16.0,18.0,-999,-99.99,,,-99.99,,2013-01-09 02:00:00,
2013-01-08 21:23:00,77.0,-99.9,30.14,ESE,120,16.0,18.0,-999,-99.99,,,-99.99,,2013-01-09 02:23:00,
2013-01-08 21:33:00,77.0,-99.9,30.14,ESE,120,16.0,18.0,-999,-99.99,,,-99.99,,2013-01-09 02:33:00,
2013-01-08 21:43:00,77.0,-99.9,30.14,ESE,120,16.0,18.0,-999,-99.99,,,-99.99,,2013-01-09 02:43:00,
2013-01-08 21:53:00,77.0,-99.9,30.14,ESE,120,16.0,18.0,-999,-99.99,,,-99.99,,2013-01-09 02:53:00,
2013-01-08 22:00:00,77.0,-99.9,30.13,SE,130,20.0,23.0,-999,-99.99,,,-99.99,,2013-01-09 03:00:00,
2013-01-08 22:22:00,77.0,-99.9,30.13,SE,130,20.0,23.0,-999,-99.99,,,-99.99,,2013-01-09 03:22:00,
2013-01-08 22:33:00,77.0,-99.9,30.13,SE,130,20.0,23.0,-999,-99.99,,,-99.99,,2013-01-09 03:33:00,
2013-01-08 22:43:00,77.0,-99.9,30.13,SE,130,20.0,23.0,-999,-99.99,,,-99.99,,2013-01-09 03:43:00,
2013-01-08 22:53:00,77.0,-99.9,30.13,SE,130,20.0,23.0,-999,-99.99,,,-99.99,,2013-01-09 03:53:00,
2013-01-08 23:00:00,77.0,-99.9,30.13,SE,130,16.0,18.0,-999,-99.99,,,-99.99,,2013-01-09 04:00:00,
2013-01-08 23:23:00,77.0,-99.9,30.13,SE,130,16.0,18.0,-999,-99.99,,,-99.99,,2013-01-09 04:23:00,
2013-01-08 23:33:00,77.0,-99.9,30.13,SE,130,16.0,18.0,-999,-99.99,,,-99.99,,2013-01-09 04:33:00,
2013-01-08 23:43:00,77.0,-99.9,30.13,SE,130,16.0,18.0,-999,-99.99,,,-99.99,,2013-01-09 04:43:00,
2013-01-08 23:53:00,77.0,-99.9,30.13,SE,130,16.0,18.0,-999,-99.99,,,-99.99,,2013-01-09 04:53:00,